{"data":{"norad_id":69992,"epoch":"2026-09-20T00:20:50.693568Z","epoch_age_seconds":59719,"freshness":"FRESH","line1":"1 69992U 26159T   26263.01447562  .00036241  00000+0  66442-3 0  9996","line2":"2 69992  97.2875 104.8528 0000787 118.8937 241.2393 15.49212404 12371","mean_motion":15.49212404,"eccentricity":7.87e-5,"inclination_deg":97.2875,"raan_deg":104.8528,"arg_perigee_deg":118.8937,"mean_anomaly_deg":241.2393,"bstar":0.00066442,"rev_number":1237,"period_min":92.950456392034,"perigee_km":418.49387380548,"apogee_km":419.56374770409,"semimajor_km":6797.1658107548,"source":"CELESTRAK","updated_at":"2026-09-20T09:00:44.331509Z"}}